Tracking 20715 objects as of 27-May-2020
HD Live streaming from Space Station
objects crossing your sky now

FENGYUN 1C DEB

Track FENGYUN 1C DEB now!
10-day predictions


NORAD ID: 31912
Int'l Code: 1999-025CLP
Perigee: 768.0 km
Apogee: 1,605.5 km
Inclination: 98.8 °
Period: 109.0 minutes
Semi major axis: 7557 km
RCS: 0.0133 m2 (small)
Launch date: May 10, 1999
Source: People's Republic of China (PRC)
Launch site: Taiyaun Space Center, China (TSC)

Note: This is SATELLITE DEBRIS
aabbcc
Your satellite tracking list
Your tracking list is empty




NASA's NSSDC Master Catalog

Two Line Element Set (TLE):
1 31912U 99025CLP 20147.86172793 +.00000382 +00000-0 +44707-3 0  9996
2 31912 098.8038 158.7918 0554096 143.5950 220.4221 13.21341567269787
Source of the keplerian elements: AFSPC